SCP
0 0 0 0 0 0 0 0 0 -0 -0 -0 -0 -0 -0 -0 -0 -0 -0 0 0 0 0 0 0 0 0 0 0 0 0 0 0 0 0 0 0 0 0 0 0 0 0 0 1
0 0 0 0 0 -0 0 0 0 0 0 0 0 0 0 0 -0 0 0 0 0 0 0 0 0 0 0 0 0 0 0 0 0 0 0 0 0 0 0 0 0 0 0 1 1
0 0 0 0 0 -0 -0 -0 0 0 0 0 0 0 -0 0 -0 -0 0 0 0 0 0 0 0 0 0 0 0 0 0 0 0 0 0 0 0 0 0 0 0 0 0 0 1
0 0 0 0 0 0 0 0 -0 -0 0 0 0 0 0 0 0 0 0 0 0 0 0 0 0 0 0 0 0 0 0 0 0 0 0 0 -0 0 0 0 0 0 0 0 1
0 0 0 0 -0 -0 -0 -0 0 0 0 -0 0 0 0 0 0 0 0 0 0 0 0 0 0 0 0 0 0 0 0 0 0 0 0 0 0 0 0 0 0 0 0 0 0
0 0 0 -0 -0 0 0 0 0 0 0 0 0 0 0 0 0 0 0 0 0 0 0 0 0 0 0 0 0 0 0 0 0 0 0 0 0 -0 -0 0 0 0 0 0 0
0 0 0 0 0 0 0 0 0 0 0 0 0 0 0 0 0 0 0 0 0 0 0 0 0 0 0 0 0 0 0 0 0 0 0 0 0 0 0 0 0 0 0 0 0
0 0 0 0 0 0 0 0 0 0 0 0 0 0 0 0 0 0 0 0 0 0 0 0 0 0 0 0 0 0 0 0 0 0 0 0 0 -0 -0 0 0 0 0 0 0
0 0 0 0 0 0 0 0 0 0 0 0 0 0 0 0 0 0 0 0 0 0 0 0 0 0 0 0 0 0 0 0 0 0 0 0 0 -0 -0 0 0 0 0 0 0
0 0 0 0 0 0 0 0 0 0 0 0 0 0 0 0 0 0 0 0 0 0 0 0 0 0 0 0 0 0 0 0 0 0 0 0 0 0 0 0 0 0 0 0 0
0 0 0 0 0 0 0 0 0 0 0 0 0 0 0 0 0 0 0 0 0 0 0 0 0 0 0 0 0 0 0 0 0 0 0 0 0 0 0 0 0 0 0 0 0
0 0 0 0 0 0 0 0 0 0 0 0 0 0 0 0 0 0 0 0 0 0 0 0 0 0 0 0 0 0 0 0 0 0 0 0 0 0 0 0 0 0 0 0 0
0 0 0 0 0 0 0 0 0 0 0 0 0 0 0 0 0 0 0 0 0 0 0 0 0 0 0 0 0 0 0 0 0 0 0 0 0 0 0 0 0 0 0 0 0
0 0 0 0 0 0 0 0 0 0 0 0 0 0 0 0 0 -0 0 0 0 0 0 0 0 0 0 0 0 0 0 0 0 0 0 0 0 0 0 0 0 0 0 0 0
0 0 0 0 0 0 0 0 0 0 0 0 0 0 0 0 0 0 -0 0 0 0 0 0 0 0 0 0 0 0 0 0 0 0 0 0 0 0 0 0 0 0 0 0 0
0 0 0 0 0 0 0 0 0 0 0 0 0 0 0 0 0 0 0 0 0 0 0 0 0 0 0 0 0 0 0 0 0 0 0 0 0 0 0 0 0 0 0 0 0
0 0 0 0 0 0 0 0 0 0 0 0 0 0 0 0 0 0 0 0 0 0 0 0 0 0 0 0 0 0 0 0 0 0 0 0 0 0 0 0 0 0 0 0 0
0 0 0 0 0 0 0 0 0 0 0 0 0 0 0 0 0 0 0 0 0 0 0 0 0 0 0 0 0 0 0 0 0 0 0 0 0 0 0 0 0 0 0 0 0
0 0 0 0 0 0 0 0 0 0 0 0 0 0 0 0 0 0 0 0 0 0 0 0 0 0 0 0 0 0 0 0 0 0 0 0 0 0 0 0 0 0 0 0 0
0 0 0 0 0 0 0 0 0 0 0 0 0 0 0 0 0 -0 0 0 0 0 0 0 0 0 0 0 0 0 0 0 0 0 0 0 0 0 0 0 0 0 0 0 0
0 0 0 0 0 0 0 0 0 0 0 0 0 0 0 -0 0 0 -0 0 0 0 0 0 0 0 0 0 0 0 0 0 0 0 0 0 0 0 0 0 0 0 0 0 0
0 0 0 0 0 0 0 0 0 0 0 0 0 0 0 -0 -0 -0 0 -0 0 0 0 0 0 0 0 0 0 0 0 0 0 0 0 0 0 0 0 0 0 0 0 0 0
0 0 0 0 0 0 0 0 0 0 0 0 0 0 0 -0 -0 -0 -0 0 -0 -0 0 0 0 0 0 0 0 0 0 0 0 0 0 0 0 0 0 0 0 0 0 0 0
0 0 0 0 0 0 0 0 0 0 0 0 0 -0 -0 0 0 -0 0 -0 -0 0 0 0 0 0 0 0 0 0 0 0 0 0 0 0 0 0 0 0 0 0 0 0 0
0 0 0 0 0 0 0 0 0 0 0 0 -0 0 -0 -0 0 0 -0 -0 0 0 0 0 0 0 0 0 0 0 0 0 0 0 0 0 0 0 0 0 0 0 0 0 0
0 0 0 0 0 0 0 0 0 0 0 0 0 -0 0 0 -0 -0 -0 -0 0 0 0 0 0 0 0 0 0 0 0 0 -0 0 0 0 0 0 0 0 0 0 0 0 0
0 0 0 0 0 0 0 0 -0 0 0 -0 -0 -0 0 -0 -0 0 0 -0 0 0 0 0 0 0 0 0 0 0 0 -0 0 0 0 0 0 0 0 0 0 0 0 0 0
Wind_Speed_500mb
37 37 35 30 27 32 37 39 39 39 42 45 46 46 46 49 51 53 62 53 48 35 37 43 32 16 23 15 16 10 4 9 10 10 7 2 1 1 14 8 21 24 15 24 19
39 42 42 40 41 39 34 35 39 43 45 45 45 47 50 57 63 69 29 30 45 52 49 39 40 28 16 15 15 10 8 18 14 9 5 1 6 15 14 24 8 8 24 3 23
44 44 45 45 47 48 50 52 47 42 44 46 47 51 54 53 56 6 8 6 3 34 49 43 27 42 20 18 19 14 13 9 7 21 18 6 4 16 8 12 10 3 13 6 24
47 48 49 48 48 47 51 53 54 57 51 50 48 45 46 46 14 9 20 8 8 6 35 40 33 30 13 13 21 9 23 31 7 25 23 13 9 6 16 28 32 34 22 4 3
48 49 50 51 49 48 47 48 50 47 49 55 50 45 37 18 47 33 32 28 24 15 19 43 45 20 15 16 16 7 5 20 50 54 47 52 35 18 38 62 57 46 41 24 13
49 50 50 51 51 52 54 51 50 51 46 45 51 45 34 23 15 7 22 42 52 33 25 47 34 39 19 10 16 12 33 35 33 33 17 15 37 19 17 31 32 34 34 34 30
48 50 52 53 55 55 55 57 59 56 50 47 44 39 44 83 41 32 29 22 20 31 26 33 42 32 15 2 15 13 13 18 13 12 12 16 45 51 36 47 60 54 47 43 40
48 51 54 56 57 57 59 63 67 61 53 48 36 19 33 35 46 46 34 54 56 29 37 25 37 30 11 6 10 4 8 9 13 17 14 26 51 17 16 31 44 44 48 46 43
52 54 56 58 60 60 62 63 43 30 29 21 16 21 30 23 18 10 13 17 18 58 45 24 22 19 9 6 10 6 7 7 3 19 12 23 6 5 32 39 44 47 48 52 53
55 58 61 63 64 66 67 41 29 22 5 15 9 12 25 10 5 14 11 6 1 36 20 24 17 9 7 11 20 10 7 7 8 12 19 22 29 16 48 24 40 57 61 62 60
61 65 68 67 67 69 59 37 16 9 14 26 24 38 38 36 25 17 4 14 12 24 13 22 11 24 12 12 6 2 6 4 3 12 13 17 30 17 31 27 32 46 48 53 53
67 68 69 68 63 65 26 41 25 19 26 56 69 80 81 58 32 46 19 10 12 11 11 7 33 18 24 22 19 17 24 14 9 19 9 12 17 17 18 18 33 50 57 62 63
67 67 70 72 68 25 48 27 7 14 12 26 19 21 17 20 28 29 24 47 11 14 20 27 10 38 30 17 23 25 31 14 8 13 13 7 17 12 15 19 39 52 61 64 60
70 69 72 76 37 49 26 6 18 15 7 12 9 2 1 3 13 13 21 25 16 26 11 20 26 9 25 33 26 28 17 12 16 14 9 6 13 13 11 20 14 37 52 66 64
69 70 76 62 57 30 14 18 8 5 9 1 3 14 3 9 29 1 13 29 15 13 14 15 18 30 33 21 28 19 20 21 20 13 9 13 4 12 5 17 20 19 39 47 50
70 72 62 36 21 12 7 2 10 7 14 10 7 16 26 29 16 8 14 12 13 7 10 16 13 16 27 37 23 19 8 5 3 6 7 17 13 9 10 16 11 11 23 27 30
70 57 35 27 12 6 3 6 7 6 11 7 14 19 35 27 10 11 11 12 11 9 21 7 18 8 12 17 20 19 15 7 1 3 18 18 8 27 17 11 11 9 15 22 26
65 27 21 20 16 1 1 7 6 4 7 18 20 41 15 5 8 5 1 5 16 13 5 22 20 25 16 19 14 27 22 9 15 8 8 9 17 17 13 19 19 3 30 29 28
60 14 33 26 17 6 4 2 7 5 7 21 31 14 7 10 8 7 13 12 10 31 20 12 16 10 28 18 24 10 23 14 5 5 4 11 12 10 6 15 12 17 42 38 37
60 19 25 31 12 12 3 9 7 2 11 8 8 7 9 17 18 12 8 9 9 24 40 9 9 11 14 14 11 15 19 9 3 10 7 7 9 12 8 13 11 11 29 47 55
48 11 15 39 12 7 6 7 10 23 29 9 15 25 25 32 13 7 16 18 33 23 32 30 2 5 15 13 22 8 17 7 13 8 10 8 7 3 1 2 5 10 17 40 61
32 7 16 34 8 4 4 9 22 20 24 20 15 25 29 25 6 12 12 12 25 9 7 28 8 9 9 6 10 17 26 17 9 8 6 3 3 7 9 9 18 21 30 43 54
26 15 12 32 4 6 12 16 20 13 16 10 12 11 14 12 11 18 16 13 42 3 12 12 8 7 3 9 4 9 13 24 8 5 13 9 5 6 7 17 28 29 31 37 56
16 9 13 16 18 5 10 17 11 24 26 11 19 18 10 15 10 19 21 17 37 30 26 18 10 9 9 8 11 12 25 25 28 13 8 10 17 11 11 23 27 33 38 36 49
13 6 9 8 13 26 14 14 25 10 17 15 15 10 26 11 32 20 9 14 33 13 5 6 3 6 4 6 7 9 26 27 15 18 14 13 28 30 26 30 31 39 42 38 47
16 13 12 36 27 16 20 8 26 19 12 26 12 36 34 28 32 43 15 6 13 13 11 3 2 11 17 3 8 9 28 22 21 10 9 24 11 18 38 54 54 39 32 42 44
21 23 19 17 9 11 10 24 33 37 29 22 34 33 34 31 38 54 55 46 35 25 5 7 4 5 8 11 12 3 13 29 16 7 14 14 13 31 16 25 50 61 32 33 54
Wind_Direction_500mb
339 336 334 328 325 325 328 328 328 326 327 326 324 321 318 311 303 296 286 286 270 255 239 241 245 208 196 193 198 174 124 226 238 167 233 210 9 353 323 300 340 35 317 279 272
339 338 335 334 331 328 321 316 318 322 324 323 320 319 319 316 313 308 295 279 249 234 233 228 226 203 186 197 191 170 179 220 201 202 228 25 357 342 337 334 321 28 19 220 212
337 335 333 331 329 327 322 319 317 316 316 313 313 317 317 317 321 185 120 106 28 223 214 217 213 193 195 187 188 190 210 231 222 240 268 248 234 278 235 297 231 43 63 46 185
341 339 338 337 335 330 325 322 320 319 314 310 315 312 305 307 294 216 216 236 358 34 196 192 189 185 175 195 196 199 225 226 230 243 261 261 204 234 252 249 276 289 306 172 191
342 340 337 335 333 330 326 322 320 315 312 313 314 311 313 282 263 255 253 246 267 279 213 192 183 161 176 190 209 234 255 234 243 249 251 269 256 236 255 270 278 279 284 252 220
342 340 338 336 335 332 328 325 319 315 312 307 305 305 297 267 290 225 233 245 253 253 238 198 198 195 193 187 172 210 215 239 244 249 240 241 274 216 220 264 269 280 276 261 250
344 341 339 337 334 332 327 323 319 314 305 296 287 289 273 260 271 262 250 233 218 207 217 226 210 195 209 331 233 265 267 268 234 235 246 245 277 247 245 258 265 268 267 262 246
345 342 340 339 337 334 330 328 321 310 299 284 273 250 260 281 290 289 259 242 228 211 207 211 213 214 192 281 359 231 150 228 226 187 223 175 256 262 179 223 246 253 258 253 249
346 341 337 335 334 332 329 329 323 324 312 292 211 205 262 301 304 329 287 247 241 221 217 214 207 208 171 115 341 281 226 176 262 193 175 198 279 291 236 240 238 247 245 248 261
342 336 333 333 333 328 329 336 318 325 100 91 128 210 259 329 311 326 22 123 81 174 169 180 182 176 166 157 213 201 192 228 180 208 204 224 241 275 278 250 233 239 242 247 257
340 335 332 332 332 328 331 346 334 287 225 237 256 244 260 274 282 277 37 1 148 160 158 185 177 210 166 185 248 323 241 245 284 237 204 230 257 242 262 247 245 246 246 249 254
340 335 331 329 330 326 331 326 312 283 295 279 269 262 264 262 293 248 231 288 201 195 140 122 229 192 177 196 209 227 246 241 274 270 182 270 268 246 246 252 237 256 258 262 264
339 336 332 327 329 335 326 324 324 285 282 298 275 254 296 217 225 273 230 221 202 204 195 208 224 187 195 196 206 223 230 235 220 302 281 274 285 258 260 250 261 258 261 261 259
338 336 331 327 330 322 329 260 319 313 351 278 232 217 179 223 229 256 233 183 197 214 188 233 228 192 210 212 198 228 180 179 206 193 226 166 275 265 252 264 264 267 258 250 249
338 337 327 325 309 325 306 283 286 150 333 339 134 94 104 190 303 327 209 218 195 179 163 215 183 210 229 221 216 235 175 195 210 214 170 246 243 260 310 278 271 265 249 241 235
339 339 329 344 337 346 307 152 144 38 253 325 76 3 346 328 271 197 175 191 232 232 235 217 216 200 218 217 214 220 262 82 84 131 209 207 177 270 216 229 271 243 232 221 208
343 343 344 355 11 63 131 126 32 175 347 0 343 346 324 293 260 209 200 175 182 207 234 254 227 201 187 206 210 203 179 254 301 242 236 147 167 242 268 257 253 263 144 168 181
349 0 358 7 6 159 142 47 219 294 316 356 343 320 281 277 248 287 131 242 234 200 265 213 238 202 193 192 174 204 181 169 189 195 226 102 220 243 260 286 320 188 129 144 154
352 10 35 22 355 306 351 124 246 340 345 342 324 291 283 359 351 314 214 216 237 200 201 216 232 242 194 174 161 189 184 170 322 192 148 201 238 317 10 27 40 112 114 117 136
348 346 28 26 2 342 29 239 276 278 344 337 279 296 316 303 314 320 259 222 226 208 200 249 243 201 189 153 186 160 138 138 240 173 208 240 206 223 357 347 11 55 111 117 124
350 343 1 359 346 281 268 270 293 309 304 238 253 275 270 283 273 248 242 256 258 218 197 198 239 258 129 181 175 136 177 140 135 202 169 174 241 274 62 354 24 35 83 115 124
352 345 7 357 37 18 292 297 309 274 292 290 265 268 259 272 279 277 251 292 330 355 247 183 165 210 179 136 140 184 166 202 139 205 229 153 220 76 113 98 103 71 95 120 123
341 295 354 5 37 342 304 295 286 285 310 294 297 290 336 305 272 250 266 311 317 250 240 147 149 145 191 316 331 163 167 187 134 102 195 147 241 124 97 91 86 75 91 106 120
345 328 341 3 15 4 313 301 300 293 284 321 278 285 359 299 256 284 286 308 315 297 278 157 173 194 181 197 153 159 188 177 185 190 224 210 146 187 134 108 101 90 92 97 108
1 327 10 314 322 314 283 293 292 295 325 328 298 321 350 295 305 276 285 318 290 280 335 162 253 237 316 198 132 156 191 182 170 180 168 184 161 174 165 131 107 108 110 104 109
8 347 316 293 284 278 296 270 289 325 324 305 288 324 318 293 285 301 306 306 275 8 335 43 342 215 226 168 110 199 208 190 200 170 184 165 167 187 146 128 110 101 116 121 120
336 324 291 275 289 290 277 309 307 307 297 279 308 305 299 288 311 304 292 269 261 285 279 277 186 229 191 149 80 292 187 182 205 142 165 160 190 150 154 163 135 134 155 145 140
Wind_Speed_850mb
37 37 35 30 27 32 37 39 39 39 42 45 46 46 46 49 51 53 62 53 48 35 37 43 32 16 23 15 16 10 4 9 10 10 7 2 1 1 14 8 21 24 15 24 19
39 42 42 40 41 39 34 35 39 43 45 45 45 47 50 57 63 69 29 30 45 52 49 39 40 28 16 15 15 10 8 18 14 9 5 1 6 15 14 24 8 8 24 3 23
44 44 45 45 47 48 50 52 47 42 44 46 47 51 54 53 56 6 8 6 3 34 49 43 27 42 20 18 19 14 13 9 7 21 18 6 4 16 8 12 10 3 13 6 24
47 48 49 48 48 47 51 53 54 57 51 50 48 45 46 46 14 9 20 8 8 6 35 40 33 30 13 13 21 9 23 31 7 25 23 13 9 6 16 28 32 34 22 4 3
48 49 50 51 49 48 47 48 50 47 49 55 50 45 37 18 47 33 32 28 24 15 19 43 45 20 15 16 16 7 5 20 50 54 47 52 35 18 38 62 57 46 41 24 13
49 50 50 51 51 52 54 51 50 51 46 45 51 45 34 23 15 7 22 42 52 33 25 47 34 39 19 10 16 12 33 35 33 33 17 15 37 19 17 31 32 34 34 34 30
48 50 52 53 55 55 55 57 59 56 50 47 44 39 44 83 41 32 29 22 20 31 26 33 42 32 15 2 15 13 13 18 13 12 12 16 45 51 36 47 60 54 47 43 40
48 51 54 56 57 57 59 63 67 61 53 48 36 19 33 35 46 46 34 54 56 29 37 25 37 30 11 6 10 4 8 9 13 17 14 26 51 17 16 31 44 44 48 46 43
52 54 56 58 60 60 62 63 43 30 29 21 16 21 30 23 18 10 13 17 18 58 45 24 22 19 9 6 10 6 7 7 3 19 12 23 6 5 32 39 44 47 48 52 53
55 58 61 63 64 66 67 41 29 22 5 15 9 12 25 10 5 14 11 6 1 36 20 24 17 9 7 11 20 10 7 7 8 12 19 22 29 16 48 24 40 57 61 62 60
61 65 68 67 67 69 59 37 16 9 14 26 24 38 38 36 25 17 4 14 12 24 13 22 11 24 12 12 6 2 6 4 3 12 13 17 30 17 31 27 32 46 48 53 53
67 68 69 68 63 65 26 41 25 19 26 56 69 80 81 58 32 46 19 10 12 11 11 7 33 18 24 22 19 17 24 14 9 19 9 12 17 17 18 18 33 50 57 62 63
67 67 70 72 68 25 48 27 7 14 12 26 19 21 17 20 28 29 24 47 11 14 20 27 10 38 30 17 23 25 31 14 8 13 13 7 17 12 15 19 39 52 61 64 60
70 69 72 76 37 49 26 6 18 15 7 12 9 2 1 3 13 13 21 25 16 26 11 20 26 9 25 33 26 28 17 12 16 14 9 6 13 13 11 20 14 37 52 66 64
69 70 76 62 57 30 14 18 8 5 9 1 3 14 3 9 29 1 13 29 15 13 14 15 18 30 33 21 28 19 20 21 20 13 9 13 4 12 5 17 20 19 39 47 50
70 72 62 36 21 12 7 2 10 7 14 10 7 16 26 29 16 8 14 12 13 7 10 16 13 16 27 37 23 19 8 5 3 6 7 17 13 9 10 16 11 11 23 27 30
70 57 35 27 12 6 3 6 7 6 11 7 14 19 35 27 10 11 11 12 11 9 21 7 18 8 12 17 20 19 15 7 1 3 18 18 8 27 17 11 11 9 15 22 26
65 27 21 20 16 1 1 7 6 4 7 18 20 41 15 5 8 5 1 5 16 13 5 22 20 25 16 19 14 27 22 9 15 8 8 9 17 17 13 19 19 3 30 29 28
60 14 33 26 17 6 4 2 7 5 7 21 31 14 7 10 8 7 13 12 10 31 20 12 16 10 28 18 24 10 23 14 5 5 4 11 12 10 6 15 12 17 42 38 37
60 19 25 31 12 12 3 9 7 2 11 8 8 7 9 17 18 12 8 9 9 24 40 9 9 11 14 14 11 15 19 9 3 10 7 7 9 12 8 13 11 11 29 47 55
48 11 15 39 12 7 6 7 10 23 29 9 15 25 25 32 13 7 16 18 33 23 32 30 2 5 15 13 22 8 17 7 13 8 10 8 7 3 1 2 5 10 17 40 61
32 7 16 34 8 4 4 9 22 20 24 20 15 25 29 25 6 12 12 12 25 9 7 28 8 9 9 6 10 17 26 17 9 8 6 3 3 7 9 9 18 21 30 43 54
26 15 12 32 4 6 12 16 20 13 16 10 12 11 14 12 11 18 16 13 42 3 12 12 8 7 3 9 4 9 13 24 8 5 13 9 5 6 7 17 28 29 31 37 56
16 9 13 16 18 5 10 17 11 24 26 11 19 18 10 15 10 19 21 17 37 30 26 18 10 9 9 8 11 12 25 25 28 13 8 10 17 11 11 23 27 33 38 36 49
13 6 9 8 13 26 14 14 25 10 17 15 15 10 26 11 32 20 9 14 33 13 5 6 3 6 4 6 7 9 26 27 15 18 14 13 28 30 26 30 31 39 42 38 47
16 13 12 36 27 16 20 8 26 19 12 26 12 36 34 28 32 43 15 6 13 13 11 3 2 11 17 3 8 9 28 22 21 10 9 24 11 18 38 54 54 39 32 42 44
21 23 19 17 9 11 10 24 33 37 29 22 34 33 34 31 38 54 55 46 35 25 5 7 4 5 8 11 12 3 13 29 16 7 14 14 13 31 16 25 50 61 32 33 54
Wind_Direction_850mb
339 336 334 328 325 325 328 328 328 326 327 326 324 321 318 311 303 296 286 286 270 255 239 241 245 208 196 193 198 174 124 226 238 167 233 210 9 353 323 300 340 35 317 279 272
339 338 335 334 331 328 321 316 318 322 324 323 320 319 319 316 313 308 295 279 249 234 233 228 226 203 186 197 191 170 179 220 201 202 228 25 357 342 337 334 321 28 19 220 212
337 335 333 331 329 327 322 319 317 316 316 313 313 317 317 317 321 185 120 106 28 223 214 217 213 193 195 187 188 190 210 231 222 240 268 248 234 278 235 297 231 43 63 46 185
341 339 338 337 335 330 325 322 320 319 314 310 315 312 305 307 294 216 216 236 358 34 196 192 189 185 175 195 196 199 225 226 230 243 261 261 204 234 252 249 276 289 306 172 191
342 340 337 335 333 330 326 322 320 315 312 313 314 311 313 282 263 255 253 246 267 279 213 192 183 161 176 190 209 234 255 234 243 249 251 269 256 236 255 270 278 279 284 252 220
342 340 338 336 335 332 328 325 319 315 312 307 305 305 297 267 290 225 233 245 253 253 238 198 198 195 193 187 172 210 215 239 244 249 240 241 274 216 220 264 269 280 276 261 250
344 341 339 337 334 332 327 323 319 314 305 296 287 289 273 260 271 262 250 233 218 207 217 226 210 195 209 331 233 265 267 268 234 235 246 245 277 247 245 258 265 268 267 262 246
345 342 340 339 337 334 330 328 321 310 299 284 273 250 260 281 290 289 259 242 228 211 207 211 213 214 192 281 359 231 150 228 226 187 223 175 256 262 179 223 246 253 258 253 249
346 341 337 335 334 332 329 329 323 324 312 292 211 205 262 301 304 329 287 247 241 221 217 214 207 208 171 115 341 281 226 176 262 193 175 198 279 291 236 240 238 247 245 248 261
342 336 333 333 333 328 329 336 318 325 100 91 128 210 259 329 311 326 22 123 81 174 169 180 182 176 166 157 213 201 192 228 180 208 204 224 241 275 278 250 233 239 242 247 257
340 335 332 332 332 328 331 346 334 287 225 237 256 244 260 274 282 277 37 1 148 160 158 185 177 210 166 185 248 323 241 245 284 237 204 230 257 242 262 247 245 246 246 249 254
340 335 331 329 330 326 331 326 312 283 295 279 269 262 264 262 293 248 231 288 201 195 140 122 229 192 177 196 209 227 246 241 274 270 182 270 268 246 246 252 237 256 258 262 264
339 336 332 327 329 335 326 324 324 285 282 298 275 254 296 217 225 273 230 221 202 204 195 208 224 187 195 196 206 223 230 235 220 302 281 274 285 258 260 250 261 258 261 261 259
338 336 331 327 330 322 329 260 319 313 351 278 232 217 179 223 229 256 233 183 197 214 188 233 228 192 210 212 198 228 180 179 206 193 226 166 275 265 252 264 264 267 258 250 249
338 337 327 325 309 325 306 283 286 150 333 339 134 94 104 190 303 327 209 218 195 179 163 215 183 210 229 221 216 235 175 195 210 214 170 246 243 260 310 278 271 265 249 241 235
339 339 329 344 337 346 307 152 144 38 253 325 76 3 346 328 271 197 175 191 232 232 235 217 216 200 218 217 214 220 262 82 84 131 209 207 177 270 216 229 271 243 232 221 208
343 343 344 355 11 63 131 126 32 175 347 0 343 346 324 293 260 209 200 175 182 207 234 254 227 201 187 206 210 203 179 254 301 242 236 147 167 242 268 257 253 263 144 168 181
349 0 358 7 6 159 142 47 219 294 316 356 343 320 281 277 248 287 131 242 234 200 265 213 238 202 193 192 174 204 181 169 189 195 226 102 220 243 260 286 320 188 129 144 154
352 10 35 22 355 306 351 124 246 340 345 342 324 291 283 359 351 314 214 216 237 200 201 216 232 242 194 174 161 189 184 170 322 192 148 201 238 317 10 27 40 112 114 117 136
348 346 28 26 2 342 29 239 276 278 344 337 279 296 316 303 314 320 259 222 226 208 200 249 243 201 189 153 186 160 138 138 240 173 208 240 206 223 357 347 11 55 111 117 124
350 343 1 359 346 281 268 270 293 309 304 238 253 275 270 283 273 248 242 256 258 218 197 198 239 258 129 181 175 136 177 140 135 202 169 174 241 274 62 354 24 35 83 115 124
352 345 7 357 37 18 292 297 309 274 292 290 265 268 259 272 279 277 251 292 330 355 247 183 165 210 179 136 140 184 166 202 139 205 229 153 220 76 113 98 103 71 95 120 123
341 295 354 5 37 342 304 295 286 285 310 294 297 290 336 305 272 250 266 311 317 250 240 147 149 145 191 316 331 163 167 187 134 102 195 147 241 124 97 91 86 75 91 106 120
345 328 341 3 15 4 313 301 300 293 284 321 278 285 359 299 256 284 286 308 315 297 278 157 173 194 181 197 153 159 188 177 185 190 224 210 146 187 134 108 101 90 92 97 108
1 327 10 314 322 314 283 293 292 295 325 328 298 321 350 295 305 276 285 318 290 280 335 162 253 237 316 198 132 156 191 182 170 180 168 184 161 174 165 131 107 108 110 104 109
8 347 316 293 284 278 296 270 289 325 324 305 288 324 318 293 285 301 306 306 275 8 335 43 342 215 226 168 110 199 208 190 200 170 184 165 167 187 146 128 110 101 116 121 120
336 324 291 275 289 290 277 309 307 307 297 279 308 305 299 288 311 304 292 269 261 285 279 277 186 229 191 149 80 292 187 182 205 142 165 160 190 150 154 163 135 134 155 145 140